Time,TemperatureF,DewpointF,PressureIn,WindDirection,WindDirectionDegrees,WindSpeedMPH,WindSpeedGustMPH,Humidity,HourlyPrecipIn,Conditions,Clouds,dailyrainin,SoftwareType,DateUTC
2013-05-31 00:01:00,74.7,65.1,29.97,North,0,0.0,0.0,72,0.00,,,0.00,WUHU216HW,2013-05-31 04:01:00,
2013-05-31 00:02:00,74.7,65.5,29.97,North,0,0.0,0.0,73,0.00,,,0.00,WUHU216HW,2013-05-31 04:02:00,
2013-05-31 00:03:00,74.7,65.5,29.97,North,0,0.0,0.0,73,0.00,,,0.00,WUHU216HW,2013-05-31 04:03:00,
2013-05-31 00:08:00,74.5,64.9,29.97,North,0,0.0,0.0,72,0.00,,,0.00,WUHU216HW,2013-05-31 04:08:00,
2013-05-31 00:13:00,74.2,64.6,29.97,North,0,0.0,0.0,72,0.00,,,0.00,WUHU216HW,2013-05-31 04:13:00,
2013-05-31 00:18:00,73.8,64.6,29.97,North,0,0.0,0.0,73,0.00,,,0.00,WUHU216HW,2013-05-31 04:18:00,
2013-05-31 00:23:00,73.6,64.9,29.97,North,0,0.0,0.0,74,0.00,,,0.00,WUHU216HW,2013-05-31 04:23:00,
2013-05-31 00:28:00,73.4,65.1,29.97,North,0,0.0,0.0,75,0.00,,,0.00,WUHU216HW,2013-05-31 04:28:00,
2013-05-31 00:33:00,73.4,65.1,29.98,North,0,0.0,0.0,75,0.00,,,0.00,WUHU216HW,2013-05-31 04:33:00,
2013-05-31 00:38:00,73.4,64.7,29.98,North,0,0.0,0.0,74,0.00,,,0.00,WUHU216HW,2013-05-31 04:38:00,
2013-05-31 00:43:00,73.3,64.5,29.98,North,0,0.0,0.0,74,0.00,,,0.00,WUHU216HW,2013-05-31 04:43:00,
2013-05-31 00:48:00,73.1,64.7,29.98,North,0,0.0,0.0,75,0.00,,,0.00,WUHU216HW,2013-05-31 04:48:00,
2013-05-31 00:53:00,73.1,64.7,29.98,North,0,0.0,0.0,75,0.00,,,0.00,WUHU216HW,2013-05-31 04:53:00,
2013-05-31 00:58:00,73.1,64.7,29.98,North,0,0.0,0.0,75,0.00,,,0.00,WUHU216HW,2013-05-31 04:58:00,
2013-05-31 01:03:00,73.1,64.7,29.97,North,0,0.0,0.0,75,0.00,,,0.00,WUHU216HW,2013-05-31 05:03:00,
2013-05-31 01:08:00,73.1,64.7,29.97,North,0,0.0,0.0,75,0.00,,,0.00,WUHU216HW,2013-05-31 05:08:00,
2013-05-31 01:13:00,72.9,64.5,29.98,North,0,0.0,0.0,75,0.00,,,0.00,WUHU216HW,2013-05-31 05:13:00,
2013-05-31 01:19:00,72.9,64.9,29.97,North,0,0.0,0.0,76,0.00,,,0.00,WUHU216HW,2013-05-31 05:19:00,
2013-05-31 01:24:00,72.7,64.7,29.97,North,0,0.0,0.0,76,0.00,,,0.00,WUHU216HW,2013-05-31 05:24:00,
2013-05-31 01:29:00,72.7,64.7,29.97,North,0,0.0,0.0,76,0.00,,,0.00,WUHU216HW,2013-05-31 05:29:00,
2013-05-31 01:34:00,72.5,64.2,29.97,North,0,0.0,0.0,75,0.00,,,0.00,WUHU216HW,2013-05-31 05:34:00,
2013-05-31 01:39:00,72.2,63.5,29.97,North,0,0.0,0.0,74,0.00,,,0.00,WUHU216HW,2013-05-31 05:39:00,
2013-05-31 01:44:00,72.0,63.3,29.97,North,0,0.0,0.0,74,0.00,,,0.00,WUHU216HW,2013-05-31 05:44:00,
2013-05-31 01:49:00,71.6,63.3,29.97,North,0,0.0,0.0,75,0.00,,,0.00,WUHU216HW,2013-05-31 05:49:00,
2013-05-31 01:54:00,71.5,63.1,29.97,North,0,0.0,0.0,75,0.00,,,0.00,WUHU216HW,2013-05-31 05:54:00,
2013-05-31 01:59:00,71.3,62.9,29.97,North,0,0.0,0.0,75,0.00,,,0.00,WUHU216HW,2013-05-31 05:59:00,
2013-05-31 02:04:00,70.9,63.3,29.97,North,0,0.0,0.0,77,0.00,,,0.00,WUHU216HW,2013-05-31 06:04:00,
2013-05-31 02:09:00,70.9,63.3,29.97,North,0,0.0,0.0,77,0.00,,,0.00,WUHU216HW,2013-05-31 06:09:00,
2013-05-31 02:14:00,70.9,63.3,29.97,North,0,0.0,0.0,77,0.00,,,0.00,WUHU216HW,2013-05-31 06:14:00,
2013-05-31 02:19:00,70.7,63.1,29.97,North,0,0.0,0.0,77,0.00,,,0.00,WUHU216HW,2013-05-31 06:19:00,
2013-05-31 02:24:00,70.6,63.4,29.97,North,0,0.0,0.0,78,0.00,,,0.00,WUHU216HW,2013-05-31 06:24:00,
2013-05-31 02:29:00,70.6,63.7,29.97,North,0,0.0,0.0,79,0.00,,,0.00,WUHU216HW,2013-05-31 06:29:00,
2013-05-31 02:35:00,70.6,63.7,29.97,North,0,0.0,0.0,79,0.00,,,0.00,WUHU216HW,2013-05-31 06:35:00,
2013-05-31 02:40:00,70.6,63.7,29.97,North,0,0.0,0.0,79,0.00,,,0.00,WUHU216HW,2013-05-31 06:40:00,
2013-05-31 02:45:00,70.6,64.1,29.97,North,0,0.0,0.0,80,0.00,,,0.00,WUHU216HW,2013-05-31 06:45:00,
2013-05-31 02:50:00,70.6,63.7,29.97,North,0,0.0,0.0,79,0.00,,,0.00,WUHU216HW,2013-05-31 06:50:00,
2013-05-31 02:55:00,70.6,64.1,29.96,North,0,0.0,0.0,80,0.00,,,0.00,WUHU216HW,2013-05-31 06:55:00,
2013-05-31 03:00:00,70.4,63.9,29.96,North,0,0.0,0.0,80,0.00,,,0.00,WUHU216HW,2013-05-31 07:00:00,
2013-05-31 03:05:00,70.4,63.9,29.97,North,0,0.0,0.0,80,0.00,,,0.00,WUHU216HW,2013-05-31 07:05:00,
2013-05-31 03:10:00,70.2,63.7,29.97,North,0,0.0,0.0,80,0.00,,,0.00,WUHU216HW,2013-05-31 07:10:00,
2013-05-31 03:15:00,70.0,63.5,29.97,North,0,0.0,0.0,80,0.00,,,0.00,WUHU216HW,2013-05-31 07:15:00,
2013-05-31 03:20:00,69.8,63.4,29.97,North,0,0.0,0.0,80,0.00,,,0.00,WUHU216HW,2013-05-31 07:20:00,
2013-05-31 03:25:00,69.7,63.2,29.97,North,0,0.0,0.0,80,0.00,,,0.00,WUHU216HW,2013-05-31 07:25:00,
2013-05-31 03:30:00,69.5,63.0,29.97,North,0,0.0,0.0,80,0.00,,,0.00,WUHU216HW,2013-05-31 07:30:00,
2013-05-31 03:35:00,69.5,63.4,29.97,North,0,0.0,0.0,81,0.00,,,0.00,WUHU216HW,2013-05-31 07:35:00,
2013-05-31 03:40:00,69.5,63.4,29.96,North,0,0.0,0.0,81,0.00,,,0.00,WUHU216HW,2013-05-31 07:40:00,
2013-05-31 03:45:00,69.5,63.7,29.96,North,0,0.0,0.0,82,0.00,,,0.00,WUHU216HW,2013-05-31 07:45:00,
2013-05-31 03:51:00,69.5,63.7,29.97,North,0,0.0,0.0,82,0.00,,,0.00,WUHU216HW,2013-05-31 07:51:00,
2013-05-31 03:56:00,69.7,63.9,29.96,North,0,0.0,0.0,82,0.00,,,0.00,WUHU216HW,2013-05-31 07:56:00,
2013-05-31 04:01:00,69.7,63.6,29.96,North,0,0.0,0.0,81,0.00,,,0.00,WUHU216HW,2013-05-31 08:01:00,
2013-05-31 04:06:00,69.5,63.4,29.96,North,0,0.0,0.0,81,0.00,,,0.00,WUHU216HW,2013-05-31 08:06:00,
2013-05-31 04:11:00,69.5,63.7,29.97,North,0,0.0,0.0,82,0.00,,,0.00,WUHU216HW,2013-05-31 08:11:00,
2013-05-31 04:16:00,69.5,63.7,29.96,North,0,0.0,0.0,82,0.00,,,0.00,WUHU216HW,2013-05-31 08:16:00,
2013-05-31 04:21:00,69.5,63.7,29.96,North,0,0.0,0.0,82,0.00,,,0.00,WUHU216HW,2013-05-31 08:21:00,
2013-05-31 04:26:00,69.5,63.7,29.96,North,0,0.0,0.0,82,0.00,,,0.00,WUHU216HW,2013-05-31 08:26:00,
2013-05-31 04:31:00,69.3,63.2,29.96,North,0,0.0,0.0,81,0.00,,,0.00,WUHU216HW,2013-05-31 08:31:00,
2013-05-31 04:36:00,68.9,62.9,29.96,North,0,0.0,0.0,81,0.00,,,0.00,WUHU216HW,2013-05-31 08:36:00,
2013-05-31 04:41:00,68.8,63.1,29.96,North,0,0.0,0.0,82,0.00,,,0.00,WUHU216HW,2013-05-31 08:41:00,
2013-05-31 04:46:00,68.8,63.1,29.96,North,0,0.0,0.0,82,0.00,,,0.00,WUHU216HW,2013-05-31 08:46:00,
2013-05-31 04:51:00,68.8,63.7,29.96,North,0,0.0,0.0,84,0.00,,,0.00,WUHU216HW,2013-05-31 08:51:00,
2013-05-31 04:57:00,68.8,63.7,29.96,North,0,0.0,0.0,84,0.00,,,0.00,WUHU216HW,2013-05-31 08:57:00,
2013-05-31 05:02:00,68.8,63.7,29.97,North,0,0.0,0.0,84,0.00,,,0.00,WUHU216HW,2013-05-31 09:02:00,
2013-05-31 05:07:00,68.8,63.7,29.97,North,0,0.0,0.0,84,0.00,,,0.00,WUHU216HW,2013-05-31 09:07:00,
2013-05-31 05:12:00,68.8,63.7,29.97,North,0,0.0,0.0,84,0.00,,,0.00,WUHU216HW,2013-05-31 09:12:00,
2013-05-31 05:17:00,68.6,63.2,29.97,North,0,0.0,0.0,83,0.00,,,0.00,WUHU216HW,2013-05-31 09:17:00,
2013-05-31 05:22:00,68.4,63.4,29.97,North,0,0.0,0.0,84,0.00,,,0.00,WUHU216HW,2013-05-31 09:22:00,
2013-05-31 05:27:00,68.2,63.2,29.97,North,0,0.0,0.0,84,0.00,,,0.00,WUHU216HW,2013-05-31 09:27:00,
2013-05-31 05:32:00,68.2,63.2,29.97,North,0,0.0,0.0,84,0.00,,,0.00,WUHU216HW,2013-05-31 09:32:00,
2013-05-31 05:37:00,68.0,63.0,29.98,North,0,0.0,0.0,84,0.00,,,0.00,WUHU216HW,2013-05-31 09:37:00,
2013-05-31 05:42:00,68.0,63.0,29.98,North,0,0.0,0.0,84,0.00,,,0.00,WUHU216HW,2013-05-31 09:42:00,
2013-05-31 05:47:00,68.0,63.4,29.98,North,0,0.0,0.0,85,0.00,,,0.00,WUHU216HW,2013-05-31 09:47:00,
2013-05-31 05:52:00,68.0,63.4,29.98,North,0,0.0,0.0,85,0.00,,,0.00,WUHU216HW,2013-05-31 09:52:00,
2013-05-31 05:58:00,68.2,63.6,29.98,North,0,0.0,0.0,85,0.00,,,0.00,WUHU216HW,2013-05-31 09:58:00,
2013-05-31 06:03:00,68.2,63.6,29.98,North,0,0.0,0.0,85,0.00,,,0.00,WUHU216HW,2013-05-31 10:03:00,
2013-05-31 06:08:00,68.6,64.2,29.98,North,0,0.0,0.0,86,0.00,,,0.00,WUHU216HW,2013-05-31 10:08:00,
2013-05-31 06:13:00,68.8,64.4,29.98,North,0,0.0,0.0,86,0.00,,,0.00,WUHU216HW,2013-05-31 10:13:00,
2013-05-31 06:18:00,68.9,64.5,29.98,North,0,0.0,0.0,86,0.00,,,0.00,WUHU216HW,2013-05-31 10:18:00,
2013-05-31 06:23:00,69.1,64.7,29.98,North,0,0.0,0.0,86,0.00,,,0.00,WUHU216HW,2013-05-31 10:23:00,
2013-05-31 06:28:00,69.5,65.1,29.99,North,0,0.0,0.0,86,0.00,,,0.00,WUHU216HW,2013-05-31 10:28:00,
2013-05-31 06:33:00,69.7,64.9,29.99,North,0,0.0,0.0,85,0.00,,,0.00,WUHU216HW,2013-05-31 10:33:00,
2013-05-31 06:38:00,69.8,65.1,29.99,North,0,0.0,0.0,85,0.00,,,0.00,WUHU216HW,2013-05-31 10:38:00,
2013-05-31 06:43:00,70.2,65.4,29.99,North,0,0.0,0.0,85,0.00,,,0.00,WUHU216HW,2013-05-31 10:43:00,
2013-05-31 06:48:00,70.6,65.4,29.99,North,0,0.0,0.0,84,0.00,,,0.00,WUHU216HW,2013-05-31 10:48:00,
2013-05-31 06:53:00,70.9,65.4,29.99,North,0,0.0,0.0,83,0.00,,,0.00,WUHU216HW,2013-05-31 10:53:00,
2013-05-31 06:58:00,71.8,66.1,29.99,North,0,0.0,0.0,82,0.00,,,0.00,WUHU216HW,2013-05-31 10:58:00,
2013-05-31 07:03:00,72.7,67.0,29.99,North,0,0.0,0.0,82,0.00,,,0.00,WUHU216HW,2013-05-31 11:03:00,
2013-05-31 07:08:00,73.6,67.5,29.99,North,0,0.0,0.0,81,0.00,,,0.00,WUHU216HW,2013-05-31 11:08:00,
2013-05-31 07:13:00,74.3,67.9,29.99,North,0,0.0,0.0,80,0.00,,,0.00,WUHU216HW,2013-05-31 11:13:00,
2013-05-31 07:19:00,76.7,69.0,29.99,North,0,0.0,0.0,77,0.00,,,0.00,WUHU216HW,2013-05-31 11:19:00,
2013-05-31 07:24:00,78.8,70.2,29.99,North,0,0.0,0.0,75,0.00,,,0.00,WUHU216HW,2013-05-31 11:24:00,
2013-05-31 07:29:00,81.0,71.1,29.99,North,0,0.0,0.0,72,0.00,,,0.00,WUHU216HW,2013-05-31 11:29:00,
2013-05-31 07:34:00,82.4,70.7,29.99,North,0,0.0,0.0,68,0.00,,,0.00,WUHU216HW,2013-05-31 11:34:00,
2013-05-31 07:39:00,83.2,70.6,29.99,North,0,0.0,0.0,66,0.00,,,0.00,WUHU216HW,2013-05-31 11:39:00,
2013-05-31 07:44:00,83.5,71.4,29.99,North,0,0.0,0.0,67,0.00,,,0.00,WUHU216HW,2013-05-31 11:44:00,
2013-05-31 07:49:00,83.9,71.3,29.99,North,0,0.0,0.0,66,0.00,,,0.00,WUHU216HW,2013-05-31 11:49:00,
2013-05-31 07:54:00,85.1,72.0,29.99,North,0,0.0,0.0,65,0.00,,,0.00,WUHU216HW,2013-05-31 11:54:00,
2013-05-31 07:59:00,85.7,71.2,29.99,North,0,0.0,0.0,62,0.00,,,0.00,WUHU216HW,2013-05-31 11:59:00,
2013-05-31 08:04:00,85.7,71.7,29.99,North,0,0.0,0.0,63,0.00,,,0.00,WUHU216HW,2013-05-31 12:04:00,
2013-05-31 08:09:00,83.9,69.9,29.99,North,0,0.0,0.0,63,0.00,,,0.00,WUHU216HW,2013-05-31 12:09:00,
2013-05-31 08:14:00,82.3,69.2,29.99,North,0,0.0,0.0,65,0.00,,,0.00,WUHU216HW,2013-05-31 12:14:00,
2013-05-31 08:19:00,81.4,68.9,29.99,North,0,0.0,0.0,66,0.00,,,0.00,WUHU216HW,2013-05-31 12:19:00,
2013-05-31 08:25:00,81.0,69.5,29.99,North,0,0.0,0.0,68,0.00,,,0.00,WUHU216HW,2013-05-31 12:25:00,
2013-05-31 08:30:00,80.8,69.3,29.99,North,0,0.0,0.0,68,0.00,,,0.00,WUHU216HW,2013-05-31 12:30:00,
2013-05-31 08:35:00,80.8,69.3,29.99,North,0,0.0,0.0,68,0.00,,,0.00,WUHU216HW,2013-05-31 12:35:00,
2013-05-31 08:40:00,81.0,69.5,29.99,North,0,0.0,0.0,68,0.00,,,0.00,WUHU216HW,2013-05-31 12:40:00,
2013-05-31 08:45:00,80.8,69.3,29.99,North,0,0.0,0.0,68,0.00,,,0.00,WUHU216HW,2013-05-31 12:45:00,
2013-05-31 08:50:00,81.0,69.5,29.99,North,0,0.0,0.0,68,0.00,,,0.00,WUHU216HW,2013-05-31 12:50:00,
2013-05-31 08:55:00,81.4,69.8,29.99,North,0,0.0,0.0,68,0.00,,,0.00,WUHU216HW,2013-05-31 12:55:00,
2013-05-31 09:00:00,81.7,70.1,29.99,North,0,0.0,0.0,68,0.00,,,0.00,WUHU216HW,2013-05-31 13:00:00,
2013-05-31 09:05:00,81.9,69.9,29.99,North,0,0.0,0.0,67,0.00,,,0.00,WUHU216HW,2013-05-31 13:05:00,
2013-05-31 09:10:00,82.1,69.5,29.99,North,0,0.0,0.0,66,0.00,,,0.00,WUHU216HW,2013-05-31 13:10:00,
2013-05-31 09:15:00,82.3,69.7,29.99,North,0,0.0,0.0,66,0.00,,,0.00,WUHU216HW,2013-05-31 13:15:00,
2013-05-31 09:20:00,82.4,69.8,29.98,North,0,0.0,0.0,66,0.00,,,0.00,WUHU216HW,2013-05-31 13:20:00,
2013-05-31 09:26:00,82.4,69.8,29.98,North,0,0.0,0.0,66,0.00,,,0.00,WUHU216HW,2013-05-31 13:26:00,
2013-05-31 09:31:00,82.6,70.5,29.98,North,0,0.0,0.0,67,0.00,,,0.00,WUHU216HW,2013-05-31 13:31:00,
2013-05-31 09:36:00,83.0,70.4,29.98,North,0,0.0,0.0,66,0.00,,,0.00,WUHU216HW,2013-05-31 13:36:00,
2013-05-31 09:41:00,83.2,70.6,29.99,North,0,0.0,0.0,66,0.00,,,0.00,WUHU216HW,2013-05-31 13:41:00,
2013-05-31 09:46:00,83.5,70.9,29.98,North,0,0.0,0.0,66,0.00,,,0.00,WUHU216HW,2013-05-31 13:46:00,
2013-05-31 09:51:00,83.7,70.7,29.98,North,0,0.0,0.0,65,0.00,,,0.00,WUHU216HW,2013-05-31 13:51:00,
2013-05-31 09:56:00,83.7,70.7,29.98,North,0,0.0,0.0,65,0.00,,,0.00,WUHU216HW,2013-05-31 13:56:00,
2013-05-31 10:01:00,83.9,70.8,29.98,North,0,0.0,0.0,65,0.00,,,0.00,WUHU216HW,2013-05-31 14:01:00,
2013-05-31 10:06:00,84.2,72.1,29.98,North,0,0.0,0.0,67,0.00,,,0.00,WUHU216HW,2013-05-31 14:06:00,
2013-05-31 10:11:00,84.6,71.6,29.98,North,0,0.0,0.0,65,0.00,,,0.00,WUHU216HW,2013-05-31 14:11:00,
2013-05-31 10:16:00,85.0,71.9,29.98,North,0,0.0,0.0,65,0.00,,,0.00,WUHU216HW,2013-05-31 14:16:00,
2013-05-31 10:21:00,85.0,71.5,29.98,North,0,0.0,0.0,64,0.00,,,0.00,WUHU216HW,2013-05-31 14:21:00,
2013-05-31 10:26:00,85.1,71.6,29.98,North,0,0.0,0.0,64,0.00,,,0.00,WUHU216HW,2013-05-31 14:26:00,
2013-05-31 10:31:00,85.3,71.7,29.98,North,0,0.0,0.0,64,0.00,,,0.00,WUHU216HW,2013-05-31 14:31:00,
2013-05-31 10:36:00,85.7,72.1,29.97,North,0,0.0,0.0,64,0.00,,,0.00,WUHU216HW,2013-05-31 14:36:00,
2013-05-31 10:41:00,85.7,71.7,29.97,North,0,0.0,0.0,63,0.00,,,0.00,WUHU216HW,2013-05-31 14:41:00,
2013-05-31 10:46:00,86.0,71.5,29.97,North,0,0.0,0.0,62,0.00,,,0.00,WUHU216HW,2013-05-31 14:46:00,
2013-05-31 10:51:00,86.0,71.5,29.97,North,0,0.0,0.0,62,0.00,,,0.00,WUHU216HW,2013-05-31 14:51:00,
2013-05-31 10:56:00,86.4,71.8,29.97,North,0,0.0,0.0,62,0.00,,,0.00,WUHU216HW,2013-05-31 14:56:00,
2013-05-31 11:01:00,86.9,71.5,29.97,North,0,0.0,0.0,60,0.00,,,0.00,WUHU216HW,2013-05-31 15:01:00,
2013-05-31 11:07:00,87.1,72.1,29.97,North,0,0.0,0.0,61,0.00,,,0.00,WUHU216HW,2013-05-31 15:07:00,
2013-05-31 11:12:00,87.3,71.3,29.97,North,0,0.0,0.0,59,0.00,,,0.00,WUHU216HW,2013-05-31 15:12:00,
2013-05-31 11:17:00,87.7,72.2,29.97,North,0,0.0,0.0,60,0.00,,,0.00,WUHU216HW,2013-05-31 15:17:00,
2013-05-31 11:22:00,88.2,72.2,29.97,North,0,0.0,0.0,59,0.00,,,0.00,WUHU216HW,2013-05-31 15:22:00,
2013-05-31 11:27:00,88.7,72.6,29.97,North,0,0.0,0.0,59,0.00,,,0.00,WUHU216HW,2013-05-31 15:27:00,
2013-05-31 11:32:00,88.9,72.3,29.97,North,0,0.0,0.0,58,0.00,,,0.00,WUHU216HW,2013-05-31 15:32:00,
2013-05-31 11:37:00,89.3,72.5,29.97,North,0,0.0,0.0,58,0.00,,,0.00,WUHU216HW,2013-05-31 15:37:00,
2013-05-31 11:42:00,90.0,73.3,29.97,North,0,0.0,0.0,58,0.00,,,0.00,WUHU216HW,2013-05-31 15:42:00,
2013-05-31 11:47:00,90.5,72.6,29.97,North,0,0.0,0.0,56,0.00,,,0.00,WUHU216HW,2013-05-31 15:47:00,
2013-05-31 11:52:00,90.7,72.3,29.96,North,0,0.0,0.0,55,0.00,,,0.00,WUHU216HW,2013-05-31 15:52:00,
2013-05-31 11:57:00,91.1,72.5,29.96,North,0,0.0,0.0,55,0.00,,,0.00,WUHU216HW,2013-05-31 15:57:00,
2013-05-31 12:02:00,91.3,72.2,29.96,North,0,0.0,0.0,54,0.00,,,0.00,WUHU216HW,2013-05-31 16:02:00,
2013-05-31 12:07:00,91.4,72.4,29.96,North,0,0.0,0.0,54,0.00,,,0.00,WUHU216HW,2013-05-31 16:07:00,
2013-05-31 12:13:00,91.4,70.7,29.96,North,0,0.0,0.0,51,0.00,,,0.00,WUHU216HW,2013-05-31 16:13:00,
2013-05-31 12:18:00,91.6,71.5,29.96,North,0,0.0,0.0,52,0.00,,,0.00,WUHU216HW,2013-05-31 16:18:00,
2013-05-31 12:22:00,92.2,71.4,29.96,North,0,0.0,0.0,51,0.00,,,0.00,WUHU216HW,2013-05-31 16:22:00,
2013-05-31 12:28:00,92.0,71.8,29.96,North,0,0.0,0.0,52,0.00,,,0.00,WUHU216HW,2013-05-31 16:28:00,
2013-05-31 12:33:00,92.0,72.4,29.95,North,0,0.0,0.0,53,0.00,,,0.00,WUHU216HW,2013-05-31 16:33:00,
2013-05-31 12:38:00,92.2,71.9,29.95,North,0,0.0,0.0,52,0.00,,,0.00,WUHU216HW,2013-05-31 16:38:00,
2013-05-31 12:43:00,92.5,71.7,29.95,North,0,0.0,0.0,51,0.00,,,0.00,WUHU216HW,2013-05-31 16:43:00,
2013-05-31 12:48:00,92.9,72.1,29.95,North,0,0.0,0.0,51,0.00,,,0.00,WUHU216HW,2013-05-31 16:48:00,
2013-05-31 12:53:00,92.9,71.5,29.95,North,0,0.0,0.0,50,0.00,,,0.00,WUHU216HW,2013-05-31 16:53:00,
2013-05-31 12:58:00,92.5,71.7,29.95,North,0,0.0,0.0,51,0.00,,,0.00,WUHU216HW,2013-05-31 16:58:00,
2013-05-31 13:03:00,92.3,71.0,29.95,North,0,0.0,0.0,50,0.00,,,0.00,WUHU216HW,2013-05-31 17:03:00,
2013-05-31 13:08:00,92.5,71.7,29.95,North,0,0.0,0.0,51,0.00,,,0.00,WUHU216HW,2013-05-31 17:08:00,
2013-05-31 13:13:00,92.5,71.2,29.94,North,0,0.0,0.0,50,0.00,,,0.00,WUHU216HW,2013-05-31 17:13:00,
2013-05-31 13:18:00,92.5,71.2,29.94,North,0,0.0,0.0,50,0.00,,,0.00,WUHU216HW,2013-05-31 17:18:00,
2013-05-31 13:23:00,92.7,70.7,29.94,North,0,0.0,0.0,49,0.00,,,0.00,WUHU216HW,2013-05-31 17:23:00,
2013-05-31 13:28:00,92.7,71.4,29.93,North,0,0.0,0.0,50,0.00,,,0.00,WUHU216HW,2013-05-31 17:28:00,
2013-05-31 13:33:00,92.9,71.5,29.93,North,0,0.0,0.0,50,0.00,,,0.00,WUHU216HW,2013-05-31 17:33:00,
2013-05-31 13:38:00,93.1,71.0,29.93,North,0,0.0,0.0,49,0.00,,,0.00,WUHU216HW,2013-05-31 17:38:00,
2013-05-31 13:43:00,93.6,70.9,29.93,North,0,0.0,0.0,48,0.00,,,0.00,WUHU216HW,2013-05-31 17:43:00,
2013-05-31 13:49:00,93.8,69.8,29.93,North,0,0.0,0.0,46,0.00,,,0.00,WUHU216HW,2013-05-31 17:49:00,
2013-05-31 13:54:00,94.0,69.9,29.92,North,0,0.0,0.0,46,0.00,,,0.00,WUHU216HW,2013-05-31 17:54:00,
2013-05-31 13:59:00,94.3,70.3,29.93,North,0,0.0,0.0,46,0.00,,,0.00,WUHU216HW,2013-05-31 17:59:00,
2013-05-31 14:04:00,94.7,69.9,29.92,North,0,0.0,0.0,45,0.00,,,0.00,WUHU216HW,2013-05-31 18:04:00,
2013-05-31 14:09:00,94.7,69.9,29.92,North,0,0.0,0.0,45,0.00,,,0.00,WUHU216HW,2013-05-31 18:09:00,
2013-05-31 14:14:00,94.3,69.6,29.92,North,0,0.0,0.0,45,0.00,,,0.00,WUHU216HW,2013-05-31 18:14:00,
2013-05-31 14:19:00,94.3,67.0,29.92,North,0,0.0,0.0,41,0.00,,,0.00,WUHU216HW,2013-05-31 18:19:00,
2013-05-31 14:24:00,94.3,65.5,29.92,North,0,0.0,0.0,39,0.00,,,0.00,WUHU216HW,2013-05-31 18:24:00,
2013-05-31 14:29:00,94.7,67.3,29.92,North,0,0.0,0.0,41,0.00,,,0.00,WUHU216HW,2013-05-31 18:29:00,
2013-05-31 14:34:00,94.9,68.1,29.91,North,0,0.0,0.0,42,0.00,,,0.00,WUHU216HW,2013-05-31 18:34:00,
2013-05-31 14:39:00,95.0,67.6,29.91,North,0,0.0,0.0,41,0.00,,,0.00,WUHU216HW,2013-05-31 18:39:00,
2013-05-31 14:45:00,95.0,68.3,29.91,North,0,0.0,0.0,42,0.00,,,0.00,WUHU216HW,2013-05-31 18:45:00,
2013-05-31 14:50:00,95.0,68.3,29.91,North,0,0.0,0.0,42,0.00,,,0.00,WUHU216HW,2013-05-31 18:50:00,
2013-05-31 14:54:00,95.2,67.8,29.91,North,0,0.0,0.0,41,0.00,,,0.00,WUHU216HW,2013-05-31 18:54:00,
2013-05-31 15:00:00,95.4,68.6,29.91,North,0,0.0,0.0,42,0.00,,,0.00,WUHU216HW,2013-05-31 19:00:00,
2013-05-31 15:05:00,95.8,68.3,29.91,North,0,0.0,0.0,41,0.00,,,0.00,WUHU216HW,2013-05-31 19:05:00,
2013-05-31 15:10:00,95.8,67.6,29.91,North,0,0.0,0.0,40,0.00,,,0.00,WUHU216HW,2013-05-31 19:10:00,
2013-05-31 15:15:00,95.8,66.8,29.91,North,0,0.0,0.0,39,0.00,,,0.00,WUHU216HW,2013-05-31 19:15:00,
2013-05-31 15:20:00,95.4,66.5,29.91,North,0,0.0,0.0,39,0.00,,,0.00,WUHU216HW,2013-05-31 19:20:00,
2013-05-31 15:25:00,95.4,66.5,29.91,North,0,0.0,0.0,39,0.00,,,0.00,WUHU216HW,2013-05-31 19:25:00,
2013-05-31 15:30:00,95.4,65.7,29.90,North,0,0.0,0.0,38,0.00,,,0.00,WUHU216HW,2013-05-31 19:30:00,
2013-05-31 15:35:00,94.9,66.0,29.90,North,0,0.0,0.0,39,0.00,,,0.00,WUHU216HW,2013-05-31 19:35:00,
2013-05-31 15:40:00,94.9,66.8,29.90,North,0,0.0,0.0,40,0.00,,,0.00,WUHU216HW,2013-05-31 19:40:00,
2013-05-31 15:45:00,95.0,65.3,29.90,North,0,0.0,0.0,38,0.00,,,0.00,WUHU216HW,2013-05-31 19:45:00,
2013-05-31 15:51:00,95.4,65.7,29.90,North,0,0.0,0.0,38,0.00,,,0.00,WUHU216HW,2013-05-31 19:51:00,
2013-05-31 15:56:00,95.8,64.4,29.90,North,0,0.0,0.0,36,0.00,,,0.00,WUHU216HW,2013-05-31 19:56:00,
2013-05-31 16:01:00,95.0,63.7,29.90,North,0,0.0,0.0,36,0.00,,,0.00,WUHU216HW,2013-05-31 20:01:00,
2013-05-31 16:06:00,94.5,64.1,29.90,North,0,0.0,0.0,37,0.00,,,0.00,WUHU216HW,2013-05-31 20:06:00,
2013-05-31 16:11:00,94.0,65.2,29.90,North,0,0.0,0.0,39,0.00,,,0.00,WUHU216HW,2013-05-31 20:11:00,
2013-05-31 16:16:00,93.4,63.9,29.90,North,0,0.0,0.0,38,0.00,,,0.00,WUHU216HW,2013-05-31 20:16:00,
2013-05-31 16:21:00,92.9,64.2,29.90,North,0,0.0,0.0,39,0.00,,,0.00,WUHU216HW,2013-05-31 20:21:00,
2013-05-31 16:26:00,92.7,64.9,29.89,North,0,0.0,0.0,40,0.00,,,0.00,WUHU216HW,2013-05-31 20:26:00,
2013-05-31 16:31:00,93.2,66.0,29.89,North,0,0.0,0.0,41,0.00,,,0.00,WUHU216HW,2013-05-31 20:31:00,
2013-05-31 16:36:00,94.0,66.0,29.89,North,0,0.0,0.0,40,0.00,,,0.00,WUHU216HW,2013-05-31 20:36:00,
2013-05-31 16:41:00,94.5,66.5,29.89,North,0,0.0,0.0,40,0.00,,,0.00,WUHU216HW,2013-05-31 20:41:00,
2013-05-31 16:46:00,94.5,66.5,29.88,North,0,0.0,0.0,40,0.00,,,0.00,WUHU216HW,2013-05-31 20:46:00,
2013-05-31 16:52:00,94.5,66.5,29.88,North,0,0.0,0.0,40,0.00,,,0.00,WUHU216HW,2013-05-31 20:52:00,
2013-05-31 16:57:00,95.4,68.0,29.88,North,0,0.0,0.0,41,0.00,,,0.00,WUHU216HW,2013-05-31 20:57:00,
2013-05-31 17:02:00,97.2,68.0,29.88,North,0,0.0,0.0,39,0.00,,,0.00,WUHU216HW,2013-05-31 21:02:00,
2013-05-31 17:07:00,98.3,68.2,29.88,North,0,0.0,0.0,38,0.00,,,0.00,WUHU216HW,2013-05-31 21:07:00,
2013-05-31 17:12:00,99.0,68.0,29.88,North,0,0.0,0.0,37,0.00,,,0.00,WUHU216HW,2013-05-31 21:12:00,
2013-05-31 17:17:00,99.4,66.7,29.88,North,0,0.0,0.0,35,0.00,,,0.00,WUHU216HW,2013-05-31 21:17:00,
2013-05-31 17:22:00,99.4,66.7,29.87,North,0,0.0,0.0,35,0.00,,,0.00,WUHU216HW,2013-05-31 21:22:00,
2013-05-31 17:27:00,98.1,64.7,29.87,North,0,0.0,0.0,34,0.00,,,0.00,WUHU216HW,2013-05-31 21:27:00,
2013-05-31 17:32:00,96.7,64.3,29.87,North,0,0.0,0.0,35,0.00,,,0.00,WUHU216HW,2013-05-31 21:32:00,
2013-05-31 17:37:00,96.7,66.8,29.87,North,0,0.0,0.0,38,0.00,,,0.00,WUHU216HW,2013-05-31 21:37:00,
2013-05-31 17:42:00,97.2,65.6,29.87,North,0,0.0,0.0,36,0.00,,,0.00,WUHU216HW,2013-05-31 21:42:00,
2013-05-31 17:47:00,96.8,63.6,29.87,North,0,0.0,0.0,34,0.00,,,0.00,WUHU216HW,2013-05-31 21:47:00,
2013-05-31 17:52:00,96.1,63.0,29.87,North,0,0.0,0.0,34,0.00,,,0.00,WUHU216HW,2013-05-31 21:52:00,
2013-05-31 17:57:00,95.8,63.6,29.87,North,0,0.0,0.0,35,0.00,,,0.00,WUHU216HW,2013-05-31 21:57:00,
2013-05-31 18:02:00,96.3,64.8,29.87,North,0,0.0,0.0,36,0.00,,,0.00,WUHU216HW,2013-05-31 22:02:00,
2013-05-31 18:07:00,97.9,65.4,29.87,North,0,0.0,0.0,35,0.00,,,0.00,WUHU216HW,2013-05-31 22:07:00,
2013-05-31 18:13:00,99.0,65.5,29.87,North,0,0.0,0.0,34,0.00,,,0.00,WUHU216HW,2013-05-31 22:13:00,
2013-05-31 18:18:00,99.7,66.3,29.87,North,0,0.0,0.0,34,0.00,,,0.00,WUHU216HW,2013-05-31 22:18:00,
2013-05-31 18:23:00,101.2,67.5,29.87,North,0,0.0,0.0,34,0.00,,,0.00,WUHU216HW,2013-05-31 22:23:00,
2013-05-31 18:28:00,101.0,67.3,29.86,North,0,0.0,0.0,34,0.00,,,0.00,WUHU216HW,2013-05-31 22:28:00,
2013-05-31 18:33:00,101.5,67.8,29.86,North,0,0.0,0.0,34,0.00,,,0.00,WUHU216HW,2013-05-31 22:33:00,
2013-05-31 18:38:00,101.7,67.1,29.86,North,0,0.0,0.0,33,0.00,,,0.00,WUHU216HW,2013-05-31 22:38:00,
2013-05-31 18:43:00,101.0,66.5,29.87,North,0,0.0,0.0,33,0.00,,,0.00,WUHU216HW,2013-05-31 22:43:00,
2013-05-31 18:48:00,100.8,67.1,29.87,North,0,0.0,0.0,34,0.00,,,0.00,WUHU216HW,2013-05-31 22:48:00,
2013-05-31 18:54:00,100.8,67.1,29.87,North,0,0.0,0.0,34,0.00,,,0.00,WUHU216HW,2013-05-31 22:54:00,
2013-05-31 18:59:00,101.2,66.6,29.87,North,0,0.0,0.0,33,0.00,,,0.00,WUHU216HW,2013-05-31 22:59:00,
2013-05-31 19:04:00,99.5,66.9,29.87,North,0,0.0,0.0,35,0.00,,,0.00,WUHU216HW,2013-05-31 23:04:00,
2013-05-31 19:09:00,97.7,65.3,29.87,North,0,0.0,0.0,35,0.00,,,0.00,WUHU216HW,2013-05-31 23:09:00,
2013-05-31 19:15:00,95.0,65.3,29.87,North,0,0.0,0.0,38,0.00,,,0.00,WUHU216HW,2013-05-31 23:15:00,
2013-05-31 19:20:00,93.2,64.5,29.86,North,0,0.0,0.0,39,0.00,,,0.00,WUHU216HW,2013-05-31 23:20:00,
2013-05-31 19:25:00,91.8,64.7,29.86,North,0,0.0,0.0,41,0.00,,,0.00,WUHU216HW,2013-05-31 23:25:00,
2013-05-31 19:30:00,90.5,64.2,29.86,North,0,0.0,0.0,42,0.00,,,0.00,WUHU216HW,2013-05-31 23:30:00,
2013-05-31 19:35:00,89.6,64.1,29.86,North,0,0.0,0.0,43,0.00,,,0.00,WUHU216HW,2013-05-31 23:35:00,
2013-05-31 19:40:00,88.6,63.8,29.86,North,0,0.0,0.0,44,0.00,,,0.00,WUHU216HW,2013-05-31 23:40:00,
2013-05-31 19:45:00,87.8,63.8,29.87,North,0,0.0,0.0,45,0.00,,,0.00,WUHU216HW,2013-05-31 23:45:00,
2013-05-31 19:50:00,87.3,64.0,29.87,North,0,0.0,0.0,46,0.00,,,0.00,WUHU216HW,2013-05-31 23:50:00,
2013-05-31 19:55:00,86.8,63.5,29.87,North,0,0.0,0.0,46,0.00,,,0.00,WUHU216HW,2013-05-31 23:55:00,
2013-05-31 20:00:00,86.2,63.0,29.87,North,0,0.0,0.0,46,0.00,,,0.00,WUHU216HW,2013-06-01 00:00:00,
2013-05-31 20:05:00,85.3,62.8,29.87,North,0,0.0,0.0,47,0.00,,,0.00,WUHU216HW,2013-06-01 00:05:00,
2013-05-31 20:10:00,84.8,62.3,29.87,North,0,0.0,0.0,47,0.00,,,0.00,WUHU216HW,2013-06-01 00:10:00,
2013-05-31 20:15:00,84.1,62.3,29.87,North,0,0.0,0.0,48,0.00,,,0.00,WUHU216HW,2013-06-01 00:15:00,
2013-05-31 20:20:00,83.3,62.2,29.87,North,0,0.0,0.0,49,0.00,,,0.00,WUHU216HW,2013-06-01 00:20:00,
2013-05-31 20:25:00,82.4,61.9,29.87,North,0,0.0,0.0,50,0.00,,,0.00,WUHU216HW,2013-06-01 00:25:00,
2013-05-31 20:30:00,81.7,61.8,29.87,North,0,0.0,0.0,51,0.00,,,0.00,WUHU216HW,2013-06-01 00:30:00,
2013-05-31 20:35:00,81.0,61.7,29.87,North,0,0.0,0.0,52,0.00,,,0.00,WUHU216HW,2013-06-01 00:35:00,
2013-05-31 20:40:00,80.5,61.8,29.87,North,0,0.0,0.0,53,0.00,,,0.00,WUHU216HW,2013-06-01 00:40:00,
2013-05-31 20:45:00,79.9,61.2,29.87,North,0,0.0,0.0,53,0.00,,,0.00,WUHU216HW,2013-06-01 00:45:00,
2013-05-31 20:50:00,79.4,61.3,29.87,North,0,0.0,0.0,54,0.00,,,0.00,WUHU216HW,2013-06-01 00:50:00,
2013-05-31 20:55:00,79.0,61.5,29.87,North,0,0.0,0.0,55,0.00,,,0.00,WUHU216HW,2013-06-01 00:55:00,
2013-05-31 21:01:00,78.7,61.7,29.87,North,0,0.0,0.0,56,0.00,,,0.00,WUHU216HW,2013-06-01 01:01:00,
2013-05-31 21:06:00,78.5,62.0,29.87,North,0,0.0,0.0,57,0.00,,,0.00,WUHU216HW,2013-06-01 01:06:00,
2013-05-31 21:11:00,78.1,61.7,29.88,North,0,0.0,0.0,57,0.00,,,0.00,WUHU216HW,2013-06-01 01:11:00,
2013-05-31 21:16:00,78.1,61.7,29.88,North,0,0.0,0.0,57,0.00,,,0.00,WUHU216HW,2013-06-01 01:16:00,
2013-05-31 21:21:00,78.1,61.7,29.88,North,0,0.0,0.0,57,0.00,,,0.00,WUHU216HW,2013-06-01 01:21:00,
2013-05-31 21:42:00,77.2,61.7,29.88,North,0,0.0,0.0,59,0.00,,,0.00,WUHU216HW,2013-06-01 01:42:00,
2013-05-31 21:47:00,77.0,62.1,29.89,North,0,0.0,0.0,60,0.00,,,0.00,WUHU216HW,2013-06-01 01:47:00,
2013-05-31 21:53:00,76.7,61.3,29.89,North,0,0.0,0.0,59,0.00,,,0.00,WUHU216HW,2013-06-01 01:53:00,
2013-05-31 21:58:00,76.3,60.9,29.89,North,0,0.0,0.0,59,0.00,,,0.00,WUHU216HW,2013-06-01 01:58:00,
2013-05-31 22:03:00,76.0,61.1,29.89,North,0,0.0,0.0,60,0.00,,,0.00,WUHU216HW,2013-06-01 02:03:00,
2013-05-31 22:08:00,75.6,61.2,29.89,North,0,0.0,0.0,61,0.00,,,0.00,WUHU216HW,2013-06-01 02:08:00,
2013-05-31 22:13:00,75.2,60.9,29.89,North,0,0.0,0.0,61,0.00,,,0.00,WUHU216HW,2013-06-01 02:13:00,
2013-05-31 22:18:00,74.9,61.0,29.90,North,0,0.0,0.0,62,0.00,,,0.00,WUHU216HW,2013-06-01 02:18:00,
2013-05-31 22:23:00,74.7,61.7,29.90,North,0,0.0,0.0,64,0.00,,,0.00,WUHU216HW,2013-06-01 02:23:00,
2013-05-31 22:28:00,74.7,61.7,29.90,North,0,0.0,0.0,64,0.00,,,0.00,WUHU216HW,2013-06-01 02:28:00,
2013-05-31 22:33:00,74.7,62.1,29.90,North,0,0.0,0.0,65,0.00,,,0.00,WUHU216HW,2013-06-01 02:33:00,
2013-05-31 22:39:00,74.5,61.6,29.90,North,0,0.0,0.0,64,0.00,,,0.00,WUHU216HW,2013-06-01 02:39:00,
2013-05-31 22:44:00,74.3,61.4,29.90,North,0,0.0,0.0,64,0.00,,,0.00,WUHU216HW,2013-06-01 02:44:00,
2013-05-31 22:49:00,74.0,61.5,29.90,North,0,0.0,0.0,65,0.00,,,0.00,WUHU216HW,2013-06-01 02:49:00,
2013-05-31 22:54:00,73.8,61.8,29.90,North,0,0.0,0.0,66,0.00,,,0.00,WUHU216HW,2013-06-01 02:54:00,
2013-05-31 22:59:00,73.8,62.2,29.90,North,0,0.0,0.0,67,0.00,,,0.00,WUHU216HW,2013-06-01 02:59:00,
2013-05-31 23:04:00,74.2,62.5,29.90,North,0,0.0,0.0,67,0.00,,,0.00,WUHU216HW,2013-06-01 03:04:00,
2013-05-31 23:09:00,74.2,62.9,29.90,North,0,0.0,0.0,68,0.00,,,0.00,WUHU216HW,2013-06-01 03:09:00,
2013-05-31 23:14:00,74.5,62.8,29.90,North,0,0.0,0.0,67,0.00,,,0.00,WUHU216HW,2013-06-01 03:14:00,
2013-05-31 23:19:00,74.5,63.7,29.89,North,0,0.0,0.0,69,0.00,,,0.00,WUHU216HW,2013-06-01 03:19:00,
2013-05-31 23:25:00,74.7,63.9,29.89,North,0,0.0,0.0,69,0.00,,,0.00,WUHU216HW,2013-06-01 03:25:00,
2013-05-31 23:30:00,74.7,63.9,29.89,North,0,0.0,0.0,69,0.00,,,0.00,WUHU216HW,2013-06-01 03:30:00,
2013-05-31 23:35:00,74.7,63.9,29.89,North,0,0.0,0.0,69,0.00,,,0.00,WUHU216HW,2013-06-01 03:35:00,
2013-05-31 23:40:00,74.5,63.7,29.89,North,0,0.0,0.0,69,0.00,,,0.00,WUHU216HW,2013-06-01 03:40:00,
2013-05-31 23:45:00,74.2,63.8,29.89,North,0,0.0,0.0,70,0.00,,,0.00,WUHU216HW,2013-06-01 03:45:00,
2013-05-31 23:50:00,74.2,64.2,29.88,North,0,0.0,0.0,71,0.00,,,0.00,WUHU216HW,2013-06-01 03:50:00,
2013-05-31 23:55:00,74.3,64.8,29.89,North,0,0.0,0.0,72,0.00,,,0.00,WUHU216HW,2013-06-01 03:55:00,